Zurück zum Katalog

SL-16 R/B

AktivSSO
NORAD 27006·ROCKET BODY·🇷🇺 Russia

Gestartet Dec 10, 2001 von Baikonur Cosmodrome

Loading…

Nächste Überflüge (nächste 24 Stunden)

TLE

AktuellSource: Space-Track

Epoche: Sep 14, 2026, 10:50 UTC

1 27006U 01056F   26257.45172647 -.00000037  00000-0  10527-4 0  9995
2 27006  99.7893  66.6221 0014019 220.5852 157.1222 13.71097299239062

Verfolge SL-16 R/B in Echtzeit mit AllMySat

Download on the App Store